User: anonymous   Login
Location: NJAA Observatory
(40.6819°N, 74.8979°W)
Time: 16:37:33
(UTC-04:00)
Language:

Landsat 5 - Orbit

View from above orbital plane
View from above orbital plane
View from above satellite
View from above satellite

Ground track
Ground track

The orbit data is extracted from the following two-line orbital elements,

1 14780U 84021A   16179.85272650  .00000078  00000-0  13649-4 0  9996
2 14780  98.0251 279.4280 0090147 255.6192 103.5007 14.91161660723069
Epoch (UTC): 27 June 2016 20:27:55
Eccentricity: 0.0090147
inclination: 98.0251°
perigee height: 531 km
apogee height: 657 km
right ascension of ascending node: 279.4280°
argument of perigee: 255.6192°
revolutions per day: 14.91161660
mean anomaly at epoch: 103.5007°
orbit number at epoch: 72306

The dashed part of the orbit path shows where the satellite is in the earth's shadow,  

DLR